Jaffrey, NH

3:24 AM EST on January 19, 2018 (GMT -0500)
Jaffrey Airport-Silver Ranch

Weather History for KAFN - October, 2013

Change the Weather History Date:

Wednesday, October 16, 2013

  Actual Average Record
Temperature  
Mean Temperature 52 °F -  
Max Temperature 59 °F 54 °F 69 °F (2014)
Min Temperature 46 °F 35 °F 28 °F (2006)
Degree Days  
Heating Degree Days 12    
Growing Degree Days 2 (Base 50)    
Moisture  
Dew Point 46 °F    
Average Humidity 85    
Maximum Humidity 96    
Minimum Humidity 59    
Precipitation  
Precipitation 0.00 in - - ()
Sea Level Pressure  
Sea Level Pressure 30.09 in    
Wind  
Wind Speed 0 mph (ESE)    
Max Wind Speed 4 mph    
Max Gust Speed -    
Visibility 9 miles    
Events      
Averages and records for this station are not official NWS values.
T = Trace of Precipitation, MM = Missing Value Source: NWS Daily Summary

Daily Weather History Graph

Daily Weather History Graph

Search for Another Location

Airport or City:

Trip Planner

Search our weather history database for the weather conditions in past years. The results will help you decide how hot, cold, wet, or windy it might be!

Date:

Astronomy

Oct. 16, 2013 Rise Set
Actual Time 7:02 AM EDT 6:03 PM EDT
Civil Twilight 6:34 AM EDT 6:32 PM EDT
Nautical Twilight 6:01 AM EDT 7:04 PM EDT
Astronomical Twilight 5:28 AM EDT 7:37 PM EDT
Moon 4:43 PM EDT (10/16) 4:24 AM EDT (10/16)
Length of Visible Light 11h 57m
Length of Day
11h 00m
Waxing Gibbous, 94% of the Moon is Illuminated
Oct 16
Waxing Gibbous
Oct 18
Full
Oct 26
Last Quarter
Nov 3
New
Nov 10
First Quarter

Hourly Weather History & Observations

Time (EDT) Temp. Dew Point Humidity Pressure Visibility Wind Dir Wind Speed Gust Speed Precip Events Conditions
12:52 AM 50.0 °F 46.9 °F 89% 30.19 in 10.0 mi Calm Calm - N/A   Partly Cloudy
1:52 AM 48.0 °F 46.0 °F 93% 30.18 in 10.0 mi Calm Calm - N/A   Clear
2:52 AM 48.9 °F 46.9 °F 93% 30.18 in 10.0 mi Calm Calm - N/A   Overcast
3:12 AM 48.2 °F 46.4 °F 93% 30.15 in 10.0 mi Calm Calm - N/A   Overcast
3:52 AM 48.9 °F 46.0 °F 90% 30.18 in 10.0 mi Calm Calm - N/A   Mostly Cloudy
4:09 AM 48.2 °F 46.4 °F 93% 30.16 in 8.0 mi Calm Calm - N/A   Scattered Clouds
4:18 AM 48.2 °F 46.4 °F 93% 30.16 in 8.0 mi Calm Calm - N/A   Mostly Cloudy
4:52 AM 48.9 °F 46.9 °F 93% 30.17 in 7.0 mi Calm Calm - N/A   Overcast
5:11 AM 48.2 °F 46.4 °F 93% 30.14 in 4.0 mi Calm Calm - N/A   Overcast
5:34 AM 48.2 °F 46.4 °F 93% 30.14 in 2.5 mi Calm Calm - N/A   Overcast
5:47 AM 48.2 °F 46.4 °F 93% 30.15 in 4.0 mi Calm Calm - N/A   Overcast
5:52 AM 48.0 °F 46.9 °F 96% 30.17 in 5.0 mi Calm Calm - N/A   Overcast
6:41 AM 48.2 °F 46.4 °F 93% 30.14 in 8.0 mi Calm Calm - N/A   Overcast
6:52 AM 48.9 °F 46.9 °F 93% 30.17 in 8.0 mi Calm Calm - N/A   Overcast
7:09 AM 48.2 °F 46.4 °F 93% 30.14 in 8.0 mi Calm Calm - N/A   Overcast
7:52 AM 48.9 °F 46.9 °F 93% 30.16 in 6.0 mi Calm Calm - N/A   Overcast
8:03 AM 48.2 °F 46.4 °F 93% 30.13 in 8.0 mi Calm Calm - N/A   Overcast
8:35 AM 50.0 °F 48.2 °F 94% 30.11 in 8.0 mi Calm Calm - N/A   Mostly Cloudy
8:52 AM 50.0 °F 48.0 °F 93% 30.14 in 8.0 mi Calm Calm - N/A   Overcast
9:44 AM 51.8 °F 48.2 °F 88% 30.12 in 10.0 mi NNE 3.5 mph - N/A   Scattered Clouds
9:52 AM 51.1 °F 48.0 °F 89% 30.14 in 10.0 mi Calm Calm - N/A   Scattered Clouds
10:52 AM 54.0 °F 46.9 °F 77% 30.12 in 10.0 mi Calm Calm - N/A   Clear
11:52 AM 54.0 °F 44.1 °F 69% 30.10 in 10.0 mi Variable 3.5 mph - N/A   Clear
12:52 PM 55.9 °F 44.1 °F 64% 30.08 in 10.0 mi Calm Calm - N/A   Clear
1:24 PM 57.2 °F 42.8 °F 59% 30.03 in 10.0 mi Calm Calm - N/A   Mostly Cloudy
1:37 PM 57.2 °F 44.6 °F 63% 30.03 in 10.0 mi Calm Calm - N/A   Scattered Clouds
1:52 PM 57.9 °F 45.0 °F 62% 30.05 in 10.0 mi Calm Calm - N/A   Clear
2:52 PM 59.0 °F 45.0 °F 60% 30.04 in 10.0 mi Calm Calm - N/A   Clear
3:31 PM 57.2 °F 46.4 °F 67% 30.02 in 10.0 mi Calm Calm - N/A   Mostly Cloudy
3:52 PM 57.9 °F 46.0 °F 65% 30.03 in 10.0 mi Calm Calm - N/A   Overcast
4:52 PM 57.0 °F 46.9 °F 69% 30.01 in 10.0 mi Calm Calm - N/A   Mostly Cloudy
5:52 PM 55.9 °F 46.9 °F 72% 30.01 in 10.0 mi Calm Calm - N/A   Scattered Clouds
6:52 PM 52.0 °F 48.0 °F 86% 30.01 in 10.0 mi Calm Calm - N/A   Scattered Clouds
7:00 PM 53.6 °F 48.2 °F 82% 29.99 in 10.0 mi Calm Calm - N/A   Mostly Cloudy
7:45 PM 51.8 °F 48.2 °F 88% 29.97 in 10.0 mi Calm Calm - N/A   Scattered Clouds
7:52 PM 50.0 °F 46.9 °F 89% 29.99 in 10.0 mi Calm Calm - N/A   Partly Cloudy
8:52 PM 46.9 °F 45.0 °F 93% 29.99 in 10.0 mi Calm Calm - N/A   Clear
9:52 PM 46.9 °F 45.0 °F 93% 29.97 in 10.0 mi Calm Calm - N/A   Partly Cloudy
10:52 PM 48.0 °F 46.0 °F 93% 29.97 in 10.0 mi Calm Calm - N/A   Mostly Cloudy
11:52 PM 48.9 °F 46.9 °F 93% 29.94 in 10.0 mi South 3.5 mph - N/A   Overcast